EHI
0 0 0 0 0 0 0 0 0 0 0 1 2 3 5 6 10 15 19 20 18 15 14 15 16 16 15 12 9 7 6 4 4 4 3 2 1 0 0 0 0 0 0 0
0 0 0 0 0 0 0 0 0 0 0 0 1 3 4 6 8 13 17 17 15 13 12 12 13 13 12 10 8 7 5 4 3 3 1 1 0 0 0 0 0 0 0 0
0 0 0 0 0 0 0 0 0 0 0 0 1 1 2 3 6 9 12 14 12 10 9 10 12 11 9 7 6 5 5 3 2 1 0 0 0 0 0 0 0 0 0 0
0 0 0 0 0 0 0 0 0 0 0 0 0 0 0 1 3 4 7 9 10 8 8 9 11 10 8 6 5 4 4 3 1 0 0 0 0 0 0 0 0 0 0 0
0 0 0 0 0 0 0 0 0 0 0 0 0 0 0 0 1 1 3 6 7 7 7 8 8 7 6 5 4 3 3 2 1 0 0 0 0 0 0 0 0 0 0 0
0 0 0 0 0 0 0 0 0 0 0 0 0 0 0 0 0 0 1 4 7 7 6 6 5 4 4 3 3 3 2 2 1 0 0 0 0 0 0 0 0 0 0 0
0 0 0 0 0 0 0 0 0 0 0 0 0 0 0 0 0 0 1 3 5 6 5 4 3 2 2 3 4 3 1 1 0 0 0 0 0 0 0 0 0 0 0 0
0 0 0 0 0 0 0 0 0 0 0 0 0 0 0 0 0 0 0 1 2 4 3 3 2 2 3 5 4 2 1 0 0 0 0 0 0 0 0 0 0 0 0 0
0 0 0 0 0 0 0 0 0 0 0 0 0 0 0 0 0 0 0 0 1 2 2 1 1 2 3 3 2 2 2 1 0 0 0 0 0 0 0 0 0 0 0 0
0 0 0 0 0 0 0 0 0 0 0 0 0 0 0 0 0 0 0 0 0 1 1 0 0 1 1 1 1 1 3 2 1 0 0 0 0 0 0 0 0 0 0 0
0 0 0 0 0 0 0 0 0 0 0 0 0 0 0 0 0 0 0 0 0 0 0 0 0 0 0 0 1 2 3 3 1 0 1 0 0 0 0 0 0 0 0 0
0 0 0 0 0 0 0 0 0 0 0 0 0 0 0 0 0 0 0 0 0 0 0 0 0 0 0 0 1 2 3 2 1 0 0 0 0 0 0 0 0 0 0 0
0 0 0 0 0 0 0 0 0 0 0 0 0 0 0 0 0 0 0 0 0 0 0 0 0 0 0 0 0 1 2 1 0 0 0 0 0 0 0 0 0 0 0 0
0 0 0 0 0 0 0 0 0 0 0 0 0 0 0 0 0 0 0 0 0 0 0 0 0 0 0 0 1 1 1 1 0 0 0 0 0 0 0 0 0 0 0 0
0 0 0 0 0 0 0 0 0 0 0 0 0 0 0 0 0 0 0 0 0 0 0 0 0 0 1 1 1 0 0 0 0 0 0 0 0 0 0 0 0 0 0 0
0 0 0 0 0 0 0 0 0 0 0 0 0 0 0 0 0 0 0 0 0 0 0 0 0 0 1 1 0 0 0 0 0 0 0 0 0 0 0 0 0 0 0 0
0 0 0 0 0 0 0 0 0 0 0 0 0 0 0 0 0 0 0 0 0 0 1 1 0 0 0 0 0 0 0 0 0 0 0 0 0 0 0 0 0 0 0 0
0 0 0 0 0 0 0 0 0 0 0 0 0 0 0 0 0 0 0 0 0 1 2 2 1 0 0 0 0 0 0 0 0 0 0 0 0 0 0 0 0 0 0 0
0 0 0 0 0 0 0 0 0 0 0 0 0 0 0 0 0 0 0 0 0 1 2 2 1 0 0 0 0 0 0 0 0 0 0 0 0 0 0 0 0 0 0 0
0 0 0 0 0 0 0 0 0 0 0 0 0 0 0 0 0 0 0 0 0 1 1 1 0 0 0 0 0 0 0 0 0 0 0 0 0 0 0 0 0 0 0 0
0 0 0 0 0 0 0 0 0 0 0 0 0 0 0 0 0 0 0 0 0 0 0 0 0 0 0 0 0 0 0 0 0 0 0 0 0 0 0 0 0 0 0 0
0 0 0 0 0 0 0 0 0 0 0 0 0 1 1 1 0 0 0 0 0 0 0 0 0 0 0 0 0 0 0 0 0 0 0 0 0 0 0 0 0 0 0 0
0 0 0 0 0 0 0 0 0 0 0 0 0 1 1 1 0 0 0 0 0 0 0 0 0 0 0 0 0 0 0 0 0 0 0 0 0 0 0 0 0 0 0 0
0 0 0 0 0 0 0 0 0 0 0 0 0 0 0 0 0 0 0 0 0 0 0 0 0 0 0 0 0 0 0 0 0 0 0 0 0 0 0 0 0 0 0 0
0 0 0 0 0 0 0 0 0 0 0 0 0 0 0 0 0 0 0 0 0 0 0 0 0 0 0 0 0 0 0 0 0 0 0 0 0 0 0 0 0 0 0 0
0 0 0 0 0 0 0 0 0 0 0 0 0 0 0 0 0 0 0 0 0 0 0 0 0 0 0 0 0 0 0 0 0 0 0 0 0 0 0 0 0 0 0 0
Wind_Speed
3 1 7 11 10 9 5 3 2 1 2 4 2 1 1 2 4 5 4 5 6 6 4 5 7 8 7 6 6 5 5 4 3 3 2 2 1 1 1 1 2 3 3 3
4 8 16 11 6 5 4 5 3 1 2 3 2 2 2 2 2 4 5 5 7 6 5 5 6 6 6 6 6 6 5 4 3 2 2 2 2 1 1 1 2 1 2 2
8 12 10 6 4 3 2 6 7 6 1 4 3 3 2 1 1 2 4 6 6 9 9 7 6 6 6 6 7 7 5 5 4 4 3 3 3 3 3 2 1 2 1 1
7 9 7 3 3 4 2 5 9 9 5 1 2 1 3 1 0 2 4 5 6 7 8 7 7 7 6 6 6 6 6 5 4 4 5 5 3 2 0 0 1 2 2 1
6 4 3 2 3 5 4 5 7 6 5 4 3 1 4 1 2 4 6 7 6 6 8 8 9 8 7 7 7 6 6 5 4 5 5 5 3 2 1 1 3 3 3 3
7 4 2 3 2 8 11 7 7 6 5 3 2 1 5 5 7 7 7 8 8 7 8 8 7 6 6 6 7 6 6 5 5 5 5 5 4 3 3 3 3 2 2 3
6 6 3 2 4 4 5 5 4 5 5 2 2 2 8 7 7 9 10 10 9 9 9 8 8 8 8 8 7 6 7 5 5 5 5 4 4 4 3 2 1 1 1 1
2 7 4 2 5 6 3 7 7 4 2 3 2 3 8 6 6 8 9 9 8 8 8 8 9 9 9 9 8 7 7 6 5 5 4 4 4 3 2 2 2 1 1 1
5 6 5 3 2 6 3 3 6 8 3 0 3 5 7 1 5 7 8 9 9 10 10 10 9 9 9 10 9 9 8 6 5 5 5 4 4 3 3 2 1 1 1 1
7 4 5 2 3 3 4 7 6 6 5 2 2 4 5 5 7 8 9 10 9 10 11 10 9 9 9 9 8 8 8 7 6 6 5 4 4 4 3 2 1 1 1 0
4 4 3 3 1 2 2 3 6 5 5 6 3 8 9 11 10 11 11 11 11 12 12 10 9 9 8 8 8 7 7 6 5 5 4 4 3 3 2 2 2 2 1 1
3 5 1 3 3 2 3 4 6 6 4 5 4 9 6 11 10 11 11 10 11 12 11 10 10 8 8 8 7 7 7 6 6 5 5 4 3 3 2 2 2 2 2 2
3 6 3 6 7 3 1 1 4 6 5 4 5 7 3 8 9 10 11 10 10 10 10 9 9 8 8 8 7 7 7 6 6 5 5 4 4 3 3 3 3 2 3 3
4 4 7 7 7 4 3 3 3 5 4 5 8 7 4 8 10 9 10 11 11 11 12 10 9 8 8 8 8 7 6 6 6 5 5 5 5 5 4 4 3 3 3 3
5 3 3 4 4 3 4 5 3 4 8 8 9 10 12 13 14 13 12 12 12 11 11 12 11 9 8 8 7 7 6 6 6 5 5 5 5 4 4 3 3 3 3 4
3 4 1 2 3 3 5 6 5 5 5 5 5 8 9 8 8 9 12 15 14 14 13 12 12 11 10 9 8 7 6 6 6 6 5 5 4 4 4 4 3 3 3 3
2 4 3 3 3 3 5 5 3 3 3 6 8 9 6 8 11 14 14 15 15 15 13 13 12 12 11 10 9 9 7 6 6 5 5 5 5 4 4 3 3 3 4 3
6 5 3 1 3 2 9 3 1 1 2 2 4 6 11 13 13 11 12 14 14 14 14 13 11 10 9 8 7 7 6 6 5 5 4 4 4 4 3 3 3 4 3 3
5 7 4 3 2 5 6 3 0 1 3 3 2 6 6 5 6 2 7 11 15 15 13 12 11 10 9 9 8 7 6 5 5 4 4 4 4 4 3 3 4 4 3 4
4 5 5 3 3 5 6 5 3 2 2 3 3 3 5 8 5 7 7 9 10 10 10 10 9 8 9 8 8 8 6 5 5 5 5 4 4 4 4 5 5 4 4 5
4 3 2 2 3 6 5 4 2 4 5 4 1 1 4 7 8 7 7 8 9 10 10 11 10 9 9 9 8 7 6 7 6 5 4 4 4 4 5 4 4 4 4 4
3 3 2 2 3 7 3 1 3 7 3 2 1 1 2 3 4 6 9 9 9 9 9 10 9 8 7 8 9 8 7 7 5 4 4 3 4 3 3 4 4 4 4 4
3 6 5 6 7 5 4 5 5 3 3 2 2 1 1 3 5 7 8 10 10 10 10 9 9 8 6 7 8 9 7 5 5 4 4 3 4 4 3 4 5 4 4 3
3 2 3 2 6 5 5 5 5 3 3 2 1 2 2 4 5 7 8 8 8 8 9 8 9 8 7 7 7 8 6 6 5 4 4 4 3 4 4 3 4 4 4 4
6 3 3 3 4 3 5 6 6 5 3 1 1 2 4 6 7 9 9 9 8 7 6 8 9 9 9 7 7 6 6 6 5 5 4 4 4 4 4 4 4 5 6 6
5 7 7 7 8 6 6 6 4 4 3 2 1 2 1 5 8 8 8 7 7 7 7 7 7 7 7 7 7 6 6 7 6 4 4 4 3 4 4 4 5 7 8 10
Wind_Direction
267 208 247 241 221 212 217 158 107 349 348 41 41 101 119 88 98 116 122 133 137 143 169 152 146 138 133 131 124 117 108 105 97 86 90 91 86 72 62 89 110 121 122 117
330 265 251 249 236 206 186 135 133 30 355 57 38 27 43 64 130 153 150 156 154 158 158 155 146 142 142 137 128 120 118 109 101 105 119 124 116 97 95 56 59 81 114 123
224 253 265 248 202 180 180 168 173 170 86 45 65 14 348 341 119 143 155 165 165 166 166 166 153 154 146 144 142 136 131 120 111 105 85 68 56 46 37 24 5 337 13 93
244 257 264 263 204 152 194 184 156 148 126 72 64 337 290 242 183 177 183 185 187 184 171 164 161 161 158 155 144 135 131 125 117 108 98 99 101 94 63 314 337 338 351 351
257 272 290 275 203 133 145 120 111 114 106 76 24 91 279 223 231 220 212 207 205 197 175 169 171 169 162 153 141 138 133 128 120 112 113 109 105 117 71 36 28 15 8 14
258 268 238 227 146 123 124 91 68 54 67 51 289 191 268 215 207 200 206 205 193 184 177 174 171 158 153 148 141 138 133 131 127 120 119 120 118 105 78 57 44 25 14 19
306 299 279 148 87 108 124 104 46 13 22 278 260 227 252 225 192 185 193 191 181 175 172 169 168 162 157 155 152 147 140 140 141 132 131 131 128 119 120 123 96 65 21 8
264 291 274 210 165 180 200 143 153 170 206 277 317 259 261 233 197 181 180 178 175 176 176 173 172 166 162 162 159 155 153 155 156 146 141 135 131 132 146 153 153 150 179 217
193 250 274 264 175 142 137 119 144 121 126 149 279 285 300 212 166 171 177 176 179 178 179 177 174 169 164 165 168 166 162 163 165 156 144 141 145 149 160 167 159 178 212 215
173 226 280 282 54 35 139 140 101 112 145 194 271 263 235 205 178 177 178 185 184 179 180 178 176 170 169 169 170 166 164 166 169 163 162 158 163 168 168 157 174 207 236 268
160 168 303 23 98 179 85 101 112 117 146 148 208 256 220 198 186 179 188 186 179 181 181 178 176 172 167 162 162 165 166 163 166 166 161 155 166 169 164 165 193 203 218 245
170 127 167 275 268 208 171 165 140 144 185 167 175 258 237 185 185 181 186 186 179 178 177 171 166 162 159 160 162 164 167 166 171 167 162 165 167 163 166 189 208 214 233 249
115 106 74 345 336 350 30 163 141 133 126 159 172 255 240 165 178 186 183 180 174 166 163 160 160 162 164 164 163 163 162 164 164 160 158 163 172 178 193 211 222 228 239 254
106 116 156 193 223 229 257 249 171 128 151 200 206 213 206 181 181 185 178 171 163 163 163 161 164 166 166 164 161 159 162 163 161 158 162 176 192 198 207 217 225 235 240 245
102 135 195 223 227 201 234 252 242 203 191 192 214 197 205 194 185 181 171 160 156 160 165 167 168 169 167 163 163 162 165 167 163 161 174 196 204 205 209 217 229 238 243 244
95 138 134 297 269 257 272 280 273 256 220 214 191 215 217 190 168 162 164 161 164 169 172 173 172 169 171 170 170 169 172 176 168 172 192 202 200 203 210 221 229 236 246 253
123 125 122 264 301 12 297 262 248 253 237 180 190 214 172 168 178 176 172 169 172 174 174 176 178 176 175 175 170 174 180 175 173 185 199 201 199 205 216 219 218 236 245 245
145 133 138 169 55 237 247 267 280 283 312 234 206 190 174 181 187 180 171 171 175 177 176 179 177 175 174 172 169 170 166 167 175 189 202 203 196 205 216 217 236 247 245 246
156 141 132 137 183 265 286 299 239 129 308 337 171 167 166 137 108 196 196 176 178 179 177 177 174 170 167 166 165 156 160 166 172 188 199 199 193 201 213 230 246 246 242 253
61 103 122 140 168 234 252 275 273 112 292 335 38 137 142 121 145 223 203 177 171 168 166 163 160 155 160 169 158 153 166 171 189 199 200 197 193 199 218 235 244 241 238 248
24 39 103 159 213 254 255 283 11 143 229 293 271 179 167 170 194 196 160 159 162 161 161 156 155 162 172 167 155 161 173 192 203 195 187 191 199 212 225 235 239 244 249 260
175 146 162 158 207 248 259 336 187 209 219 226 229 217 224 190 147 149 154 153 155 155 153 155 158 169 172 164 160 170 192 202 189 177 183 201 217 232 233 236 252 253 252 265
196 183 176 191 215 242 224 227 247 212 196 217 203 213 136 142 160 160 157 158 160 157 159 161 163 167 173 173 167 180 200 186 170 173 197 218 232 245 244 239 250 259 256 251
252 185 155 239 257 253 259 261 263 241 218 202 205 175 154 194 186 166 160 163 163 162 163 159 156 163 179 186 184 190 187 172 168 187 212 225 237 258 263 256 244 242 248 248
219 179 174 227 250 264 267 247 231 228 238 297 314 243 214 198 183 168 165 168 169 166 165 162 166 176 187 187 192 192 180 167 178 200 218 230 237 249 260 260 248 240 237 227
208 185 178 207 210 191 236 246 223 189 179 166 207 272 253 185 189 174 166 168 165 164 160 163 172 179 185 184 192 193 182 175 181 205 225 230 239 250 255 265 282 268 253 258